Вернуться в каталог

STARLINK-37216

АктивенСвязьSSO
NORAD 68391·PAYLOAD·🇺🇸 United States

Запущен Mar 26, 2026 с Vandenberg Space Force Base

Loading…

Ближайшие Пролёты (ближайшие 24 часа)

TLE

СвежийSource: CelesTrak SupGP

Эпоха: Sep 15, 2026, 04:21 UTC

1 68391C 26063M   26258.18173611  .00003783  00000+0  11740-3 0  2589
2 68391  97.2858  39.0960 0001262  91.8183 210.8450 15.33441324    17

Отслеживайте STARLINK-37216 в реальном времени с AllMySat

Download on the App Store